• In India
  • List of Countries
  • For 7 days
  • Water Temperature
  • Satellite Maps
  • Weather Map
  • Weather Widgets
  • user-avatar
    Login

    Hourly Weather Rodakove

    Today, 14 August, Tuesday

    Time Temperature Precipitation Wind Pressure Humidity
    00:00 +24°C° 0 mm 2 mps 750 mmHg 52%
    01:00 +24°C° 0 mm 1 mps 750 mmHg 54%
    02:00 +23°C° 0 mm 1 mps 750 mmHg 56%
    03:00 +23°C° 0 mm 1 mps 750 mmHg 59%
    04:00 +22°C° 0 mm 1 mps 750 mmHg 61%
    05:00 +22°C° 0 mm 1 mps 750 mmHg 62%
    06:00 +22°C° 0 mm 1 mps 750 mmHg 63%
    07:00 +24°C° 0 mm 2 mps 751 mmHg 57%
    08:00 +27°C° 0 mm 2 mps 751 mmHg 51%
    09:00 +28°C° 0 mm 2 mps 751 mmHg 44%
    10:00 +30°C° 0 mm 2 mps 751 mmHg 39%
    11:00 +31°C° 0 mm 3 mps 751 mmHg 35%
    12:00 +33°C° 0 mm 3 mps 751 mmHg 31%
    13:00 +33°C° 0 mm 4 mps 751 mmHg 31%
    14:00 +33°C° 0 mm 4 mps 751 mmHg 30%
    15:00 +34°C° 0 mm 4 mps 751 mmHg 29%
    16:00 +33°C° 0 mm 4 mps 751 mmHg 30%
    17:00 +33°C° 0 mm 4 mps 751 mmHg 31%
    18:00 +32°C° 0 mm 4 mps 751 mmHg 33%
    19:00 +29°C° 0 mm 3 mps 751 mmHg 36%
    20:00 +27°C° 0 mm 3 mps 751 mmHg 39%
    21:00 +25°C° 0 mm 3 mps 751 mmHg 43%
    22:00 +25°C° 0 mm 2 mps 752 mmHg 43%
    23:00 +24°C° 0 mm 2 mps 752 mmHg 44%

    Tomorrow, 15 August, Wednesday

    Time Temperature Precipitation Wind Pressure Humidity
    00:00 +23°C° 0 mm 2 mps 752 mmHg 45%
    01:00 +21°C° 0 mm 2 mps 752 mmHg 47%
    02:00 +21°C° 0 mm 2 mps 752 mmHg 49%
    03:00 +20°C° 0 mm 2 mps 752 mmHg 50%
    04:00 +21°C° 0 mm 1 mps 752 mmHg 53%
    05:00 +21°C° 0 mm 1 mps 752 mmHg 55%
    06:00 +21°C° 0 mm 1 mps 752 mmHg 57%
    07:00 +23°C° 0 mm 2 mps 752 mmHg 52%
    08:00 +25°C° 0 mm 2 mps 752 mmHg 47%
    09:00 +28°C° 0 mm 2 mps 752 mmHg 41%
    10:00 +29°C° 0 mm 3 mps 752 mmHg 37%
    11:00 +31°C° 0 mm 3 mps 752 mmHg 33%
    12:00 +33°C° 0 mm 3 mps 752 mmHg 29%
    13:00 +34°C° 0 mm 3 mps 752 mmHg 28%
    14:00 +34°C° 0 mm 3 mps 751 mmHg 26%
    15:00 +35°C° 0 mm 3 mps 751 mmHg 25%
    16:00 +35°C° 0 mm 2 mps 751 mmHg 26%
    17:00 +34°C° 0 mm 2 mps 751 mmHg 26%
    18:00 +34°C° 0 mm 2 mps 750 mmHg 27%
    19:00 +31°C° 0 mm 2 mps 751 mmHg 31%
    20:00 +29°C° 0 mm 2 mps 751 mmHg 34%
    21:00 +27°C° 0 mm 2 mps 751 mmHg 38%
    22:00 +26°C° 0 mm 2 mps 751 mmHg 39%
    23:00 +26°C° 0 mm 3 mps 751 mmHg 41%

    Day after tomorrow, 16 August, Thursday

    Time Temperature Precipitation Wind Pressure Humidity
    00:00 +25°C° 0 mm 3 mps 751 mmHg 42%
    01:00 +25°C° 0 mm 3 mps 751 mmHg 43%
    02:00 +24°C° 0 mm 3 mps 751 mmHg 44%
    03:00 +24°C° 0 mm 3 mps 751 mmHg 45%
    04:00 +22°C° 0 mm 3 mps 751 mmHg 47%
    05:00 +22°C° 0 mm 3 mps 751 mmHg 48%
    06:00 +22°C° 0 mm 3 mps 751 mmHg 50%
    07:00 +25°C° 0 mm 3 mps 751 mmHg 45%
    08:00 +27°C° 0 mm 3 mps 751 mmHg 41%
    09:00 +30°C° 0 mm 3 mps 751 mmHg 36%
    10:00 +31°C° 0 mm 3 mps 751 mmHg 32%
    11:00 +34°C° 0 mm 3 mps 751 mmHg 29%
    12:00 +36°C° 0 mm 3 mps 751 mmHg 25%
    13:00 +36°C° 0 mm 3 mps 750 mmHg 24%
    14:00 +36°C° 0 mm 2 mps 750 mmHg 23%
    15:00 +37°C° 0 mm 2 mps 750 mmHg 22%
    16:00 +36°C° 0 mm 2 mps 749 mmHg 24%
    17:00 +36°C° 0 mm 2 mps 749 mmHg 25%
    18:00 +34°C° 0 mm 1 mps 749 mmHg 27%
    19:00 +34°C° 0 mm 2 mps 749 mmHg 29%
    20:00 +31°C° 0 mm 2 mps 749 mmHg 30%
    21:00 +30°C° 0 mm 2 mps 750 mmHg 32%
    22:00 +29°C° 0 mm 2 mps 750 mmHg 32%
    23:00 +29°C° 0 mm 2 mps 750 mmHg 33%

    17 August, Friday

    Time Temperature Precipitation Wind Pressure Humidity
    00:00 +28°C° 0 mm 2 mps 749 mmHg 34%
    01:00 +28°C° 0 mm 2 mps 749 mmHg 34%
    02:00 +28°C° 0 mm 2 mps 749 mmHg 35%
    03:00 +27°C° 0 mm 2 mps 749 mmHg 35%
    04:00 +27°C° 0 mm 2 mps 749 mmHg 36%
    05:00 +26°C° 0 mm 2 mps 749 mmHg 37%
    06:00 +26°C° 0 mm 2 mps 750 mmHg 37%
    07:00 +27°C° 0 mm 2 mps 750 mmHg 36%
    08:00 +28°C° 0 mm 2 mps 750 mmHg 34%
    09:00 +30°C° 0 mm 2 mps 750 mmHg 33%
    10:00 +31°C° 0 mm 3 mps 750 mmHg 31%
    11:00 +33°C° 0 mm 3 mps 750 mmHg 28%
    12:00 +35°C° 0 mm 4 mps 750 mmHg 26%
    13:00 +35°C° 0 mm 4 mps 750 mmHg 26%
    14:00 +35°C° 0 mm 4 mps 749 mmHg 26%
    15:00 +35°C° 0 mm 4 mps 749 mmHg 26%
    16:00 +34°C° 0 mm 4 mps 749 mmHg 27%
    17:00 +34°C° 0 mm 4 mps 749 mmHg 29%
    18:00 +33°C° 0 mm 4 mps 749 mmHg 30%
    19:00 +32°C° 0 mm 4 mps 749 mmHg 33%
    20:00 +29°C° 0 mm 3 mps 749 mmHg 35%
    21:00 +28°C° 0 mm 3 mps 750 mmHg 37%
    22:00 +27°C° 0 mm 3 mps 749 mmHg 39%
    23:00 +26°C° 0 mm 3 mps 749 mmHg 41%

    18 August, Saturday

    Time Temperature Precipitation Wind Pressure Humidity
    00:00 +26°C° 0 mm 3 mps 749 mmHg 42%
    01:00 +25°C° 0 mm 3 mps 749 mmHg 44%
    02:00 +25°C° 0 mm 3 mps 749 mmHg 45%
    03:00 +24°C° 0 mm 3 mps 750 mmHg 46%
    04:00 +24°C° 0 mm 3 mps 750 mmHg 48%
    05:00 +24°C° 0 mm 3 mps 750 mmHg 50%
    06:00 +22°C° 0 mm 3 mps 750 mmHg 52%
    07:00 +25°C° 0 mm 3 mps 750 mmHg 49%
    08:00 +27°C° 0 mm 4 mps 750 mmHg 46%
    09:00 +30°C° 0 mm 5 mps 751 mmHg 42%
    10:00 +32°C° 0 mm 5 mps 750 mmHg 38%
    11:00 +33°C° 0 mm 5 mps 750 mmHg 34%
    12:00 +35°C° 0 mm 5 mps 750 mmHg 29%
    13:00 +35°C° 0 mm 5 mps 750 mmHg 29%
    14:00 +34°C° 0 mm 5 mps 750 mmHg 30%
    15:00 +34°C° 0 mm 5 mps 750 mmHg 30%
    16:00 +34°C° 0 mm 5 mps 750 mmHg 33%
    17:00 +33°C° 0 mm 5 mps 750 mmHg 35%
    18:00 +33°C° 0 mm 5 mps 750 mmHg 37%
    19:00 +30°C° 0.1 mm 4 mps 750 mmHg 43%
    20:00 +28°C° 0.1 mm 4 mps 751 mmHg 49%
    21:00 +26°C° 0.1 mm 4 mps 751 mmHg 55%
    22:00 +25°C° 0.1 mm 4 mps 751 mmHg 58%
    23:00 +23°C° 0.1 mm 4 mps 751 mmHg 60%

    19 August, Sunday

    Time Temperature Precipitation Wind Pressure Humidity
    00:00 +23°C° 0.1 mm 4 mps 751 mmHg 63%
    01:00 +22°C° 0 mm 4 mps 751 mmHg 62%
    02:00 +21°C° 0 mm 4 mps 751 mmHg 60%
    03:00 +21°C° 0 mm 4 mps 751 mmHg 59%
    04:00 +20°C° 0 mm 4 mps 752 mmHg 58%
    05:00 +20°C° 0 mm 4 mps 752 mmHg 57%
    06:00 +19°C° 0 mm 4 mps 752 mmHg 56%
    07:00 +21°C° 0 mm 4 mps 752 mmHg 51%
    08:00 +22°C° 0 mm 4 mps 752 mmHg 47%
    09:00 +25°C° 0 mm 5 mps 753 mmHg 43%
    10:00 +26°C° 0 mm 5 mps 753 mmHg 39%
    11:00 +28°C° 0 mm 5 mps 752 mmHg 35%
    12:00 +29°C° 0 mm 4 mps 752 mmHg 31%
    13:00 +30°C° 0 mm 4 mps 752 mmHg 28%
    14:00 +30°C° 0 mm 4 mps 752 mmHg 26%
    15:00 +32°C° 0 mm 4 mps 752 mmHg 23%
    16:00 +30°C° 0 mm 4 mps 752 mmHg 24%
    17:00 +30°C° 0 mm 4 mps 752 mmHg 24%
    18:00 +29°C° 0 mm 4 mps 751 mmHg 25%
    19:00 +27°C° 0 mm 4 mps 752 mmHg 28%
    20:00 +25°C° 0 mm 3 mps 752 mmHg 31%
    21:00 +22°C° 0 mm 3 mps 752 mmHg 33%
    22:00 +21°C° 0 mm 3 mps 752 mmHg 35%
    23:00 +20°C° 0 mm 3 mps 752 mmHg 37%
    Show more